Regional Weather Roundup
Issued by NWS

Current Version | Previous Version | Text Only | Print | Product List | Glossary On
Versions: 1 2 3 4 5 6 7 8 9 10 11 12 13 14 15 16 17 18 19 20 21 22 23 24 25 26 27 28 29 30 31 32 33 34 35 36 37 38 39 40 41 42 43 44 45 46 47 48 49 50
000
ASUS42 KFFC 301903
RWRGA
WEATHER ROUNDUP FOR GEORGIA
NATIONAL WEATHER SERVICE PEACHTREE CITY GA
200 PM EST FRI JAN 30 2015

NOTE: "FAIR" INDICATES FEW OR NO CLOUDS BELOW 12,000 FEET WITH NO
SIGNIFICANT WEATHER AND/OR OBSTRUCTIONS TO VISIBILITY.

* = USE WITH CAUTION. THE STATIONS MARKED WITH AN ASTERISK MAY NOT
REPORT WEATHER SUCH AS PRECIPITATION, FOG, OR THUNDER AND ARE NOT
QUALITY CONTROLLED BY NWS.

THE REMARK "TC" DENOTES TEMPERATURE READING IN DEGREES CELSIUS.

GAZ001>058-302000-
NORTH GEORGIA

CITY           SKY/WX    TMP DP  RH WIND       PRES   REMARKS
ATLANTA        MOSUNNY   49  23  36 NW18      30.27F
ATHENS         SUNNY     52  19  27 NW14G22   30.21F
CHAMBLEE       SUNNY     47  22  37 NW22G29   30.26F
PEACHTREE CITY SUNNY     50  21  32 N21G28    30.28F
ROME           SUNNY     47  23  38 N12G23    30.33F
WEST ATLANTA   SUNNY     48  23  37 NW17G25   30.29F
GAINESVILLE    SUNNY     48  18  30 NW14G23   30.23F
CARTERSVILLE   SUNNY     48  23  37 NW8G18    30.32F


CITY           SKY/WX    TMP DP  RH WIND       PRES   REMARKS
DALTON*        MOSUNNY   43  28  56 N8G22     30.34F
LAWRENCEVILLE* SUNNY     48  19  32 NW12G20   30.23F
MARIETTA       MOSUNNY   48  24  39 W18G26    30.27F
KENNESAW*      SUNNY     45  23  42 N12G26    30.31F
$$

GAZ059>098-102>109-302000-
CENTRAL GEORGIA

CITY           SKY/WX    TMP DP  RH WIND       PRES   REMARKS
AUGUSTA-BUSH   SUNNY     55  23  28 N15       30.19F
AUGUSTA-DANIEL SUNNY     55  22  27 NW13G22   30.19F
COLUMBUS       SUNNY     55  23  28 N14G22    30.28F
MACON          SUNNY     54  25  32 NW17G24   30.24F
ROBINS AFB     SUNNY     56  25  30 N13       30.24F


CITY           SKY/WX    TMP DP  RH WIND       PRES   REMARKS
LAGRANGE*      SUNNY     55  31  39 N8        30.29F
SYLVANIA*      SUNNY     57  32  39 NW13G23   30.17F
MILLEDGEVILLE* SUNNY     54  30  40 NW13      30.23F
$$

GAZ099>101-110>166-302000-
SOUTH GEORGIA

CITY           SKY/WX    TMP DP  RH WIND       PRES   REMARKS
SAVANNAH       MOSUNNY   59  30  33 N15G23    30.15F
VALDOSTA       SUNNY     61  33  35 VRB5      30.21F
ALMA           SUNNY     58  27  30 NW15      30.19F
ST SIMONS      SUNNY     61  32  33 NW12G22   30.15F
FT STEWART     SUNNY     59  33  36 NW12G21   30.15F
ALBANY         SUNNY     58  27  30 NW10      30.26F
HUNTER AFB     SUNNY     60  33  36 NW15G23   30.12F
MOODY AFB      SUNNY     59  29  31 NW14      30.20F
BRUNSWICK      SUNNY     63  32  31 NW9       30.16F


CITY           SKY/WX    TMP DP  RH WIND       PRES   REMARKS
BAINBRIDGE*    SUNNY     61  32  33 NW10G16   30.26F
MOULTRIE*      SUNNY     55  32  41 N9G16     30.24F
VIDALIA*       SUNNY     57  32  38 NW12G17   30.19F
WAYCROSS*      SUNNY     64  35  34 NW9G17    30.18F
DOUGLAS*       SUNNY     59  28  31 N13       30.22F
$$


USA.gov is the U.S. government's official web portal to all federal, state and local government web resources and services.